Location: Cactus School
(34.5700°N, 118.0931°W)
Time: 12:37:51
(UTC-08:00)

Hubble Space Telescope - Pass Details

Date: 18 November 2017
Orbit: 537 x 541 km, 28.5° (Epoch: 24 November)

Event Time Altitude Azimuth Distance (km) Brightness Sun altitude
Exits shadow 04:39:35 21° 192° (SSW) 1,219 2.5 -22.5°
Maximum altitude 04:40:43 24° 166° (SSE) 1,126 2.6 -22.3°
Drops below altitude 10° 04:44:04 10° 112° (ESE) 1,781 4.5 -21.6°
Sets 04:46:38 0° 98° (E) 2,673 5.9 -21.1°
